Flag for Canada Weather past 2 weeks in Ottawa, Ontario, Canada

Now
52 °F

Passing clouds.


Feels Like: 46 °F
Forecast: 33 / 54 °F
Wind: 17 mph from North

Location: Ottawa Int'L. Ont.


UV Index: 5 (Moderate)

Visibility: 15 mi


Pressure: 30.03 "Hg

Humidity: 19%

Dew point: 10 °F

Location of OttawaLocation

Historic Weather in Ottawa

°F

Ottawa temperature yesterday

Maximum temperature yesterday: 48 °F (at 3:00 PM)
Minimum temperature yesterday: 37 °F (at 5:00 AM)
Average temperature yesterday: 43 °F

Past Weeks' High & Low Weather Summary

 TemperatureHumidityPressure
High77 °F (Apr 14, 1:00 PM)100% (Apr 11, 12:00 AM)30.74 "Hg (Apr 11, 12:00 AM)
Low16 °F (Apr 16, 4:00 AM)19% (Apr 20, 4:00 PM)29.46 "Hg (Apr 22, 3:00 PM)
Average43 °F64%30.02 "Hg
* Reported Apr 9 2:00 PM — Apr 24 2:00 PM, Ottawa, Weather by CustomWeather, © 2014

Note: Actual official high and low records may vary slightly from our data, if they occured in-between our weather recording intervals... More about our weather records

Advertising

Historic Weather Conditions — Data for Previous 24 hours

 ConditionsComfort  
Time TempWeatherWind HumidityBarometerVisibility
2:00 PM
Apr 24
50 °FPassing clouds.15 mph22%30.04 "Hg15 mi
1:00 PM48 °FPassing clouds.22 mph25%30.04 "Hg15 mi
12:00 PM46 °FPassing clouds.20 mph23%30.05 "Hg15 mi
11:00 AM43 °FSunny.16 mph31%30.06 "Hg15 mi
10:00 AM39 °FSunny.17 mph42%30.06 "Hg15 mi
9:00 AM37 °FSunny.17 mph45%30.05 "Hg15 mi
8:00 AM36 °FPassing clouds.17 mph48%30.03 "Hg15 mi
7:00 AM32 °FPassing clouds.17 mph55%30.01 "Hg15 mi
6:00 AM32 °FPassing clouds.20 mph51%29.99 "Hg15 mi
5:00 AM32 °FClear.20 mph51%29.97 "Hg15 mi
4:00 AM34 °FClear.16 mph48%29.96 "Hg15 mi
3:00 AM34 °FClear.21 mph48%29.95 "Hg15 mi
2:00 AM36 °FClear.22 mph44%29.95 "Hg15 mi
1:00 AM37 °FClear.18 mph38%29.94 "Hg15 mi
12:00 AM39 °FClear.18 mph36%29.93 "Hg15 mi
11:00 PM
Apr 23
39 °FClear.17 mph33%29.91 "Hg15 mi
10:00 PM41 °FClear.20 mph28%29.90 "Hg15 mi
9:00 PM43 °FClear.16 mph31%29.88 "Hg15 mi
8:00 PM45 °FPassing clouds.22 mph34%29.85 "Hg15 mi
7:00 PM46 °FScattered clouds.13 mph40%29.83 "Hg15 mi
6:00 PM48 °FScattered clouds.21 mph37%29.82 "Hg15 mi
5:00 PM48 °FPartly sunny.18 mph37%29.80 "Hg15 mi
4:00 PM48 °FPartly sunny.18 mph43%29.79 "Hg15 mi
3:00 PM48 °FBroken clouds.18 mph50%29.79 "Hg15 mi
Weather by CustomWeather, © 2014

See weather overview